Location: Carson
(33.8314°N, 118.2820°W)
Time: 13:47:42
(UTC+00:00)

SL-16 R/B - Pass Details

Date: 23 November 2020
Orbit: 841 x 849 km, 71.0° (Epoch: 21 January)

Event Time Altitude Azimuth Distance (km) Brightness Sun altitude
Exits shadow 12:28:34 51° 342° (NNW) 1,057 2.5 -25.6°
Maximum altitude 12:30:06 89° 69° (ENE) 848 2.1 -25.3°
Drops below altitude 10° 12:35:45 10° 160° (SSE) 2,456 4.9 -24.2°
Sets 12:38:11 0° 161° (SSE) 3,389 5.7 -23.7°
